Location: Laas
(43.4693°N, 0.3073°E)
Time: 15:04:59
(UTC+00:00)

Cosmos 2227 Rocket - Pass Details

Date: 25 October 2020
Orbit: 839 x 845 km, 71.0° (Epoch: 23 November)

Event Time Altitude Azimuth Distance (km) Brightness Sun altitude
Rises 17:51:04 0° 341° (NNW) 3,406 5.5 -10.0°
Reaches altitude 10° 17:53:48 10° 352° (N) 2,469 4.7 -10.5°
Maximum altitude 17:58:50 32° 55° (NE) 1,420 2.9 -11.4°
Enters shadow 18:03:30 12° 115° (ESE) 2,350 4.0 -12.3°
